Weather History for Hazen, ND

Change the Weather History Date:

Wednesday, January 22, 2014

  Actual Average (KN60) Record (KN60)
Temperature  
Mean Temperature 7 °F -  
Max Temperature 23 °F 16 °F - (-1)
Min Temperature -11 °F 0 °F - (-1)
Degree Days  
Heating Degree Days 58    
Moisture  
Dew Point -8 °F    
Average Humidity 66    
Maximum Humidity 80    
Minimum Humidity 55    
Precipitation  
Precipitation 0.03 in - - ()
Sea Level Pressure  
Sea Level Pressure 30.45 in    
Wind  
Wind Speed 13 mph (NNW)    
Max Wind Speed 30 mph    
Max Gust Speed 44 mph    
Visibility 10 miles    
Events Rain , Snow    
Averages and records for this station are not official NWS values.
T = Trace of Precipitation, MM = Missing Value Source: NWS Daily Summary

Daily Weather History Graph

Daily Weather History Graph

Search for Another Location

Airport:

Trip Planner

Search our weather history database for the weather conditions in past years. The results will help you decide how hot, cold, wet, or windy it might be!

Date:

Astronomy

Jan. 22, 2014 Rise Set
Actual Time 8:23 AM CST 5:33 PM CST
Civil Twilight 7:49 AM CST 6:07 PM CST
Nautical Twilight 7:11 AM CST 6:44 PM CST
Astronomical Twilight 6:35 AM CST 7:20 PM CST
Moon No Moon Rise 10:57 AM CST (1/22)
Length of Visible Light 10h 17m
Length of Day
9h 10m
Waning Gibbous, 65% of the Moon is Illuminated
Jan 22
Waning Gibbous
Jan 23
Last Quarter
Jan 30
New
Feb 6
First Quarter
Feb 14
Full

Hourly Weather History & Observations

Time (CST) Temp. Windchill Dew Point Humidity Pressure Visibility Wind Dir Wind Speed Gust Speed Precip Events Conditions
12:15 AM 19.4 °F 9.5 °F 14.0 °F 80% 30.08 in 10.0 mi West 8.1 mph - N/A   Overcast
12:35 AM 19.4 °F 9.5 °F 14.0 °F 80% 30.07 in 10.0 mi West 8.1 mph - N/A   Overcast
12:55 AM 21.2 °F 9.5 °F 15.8 °F 80% 30.06 in 10.0 mi West 11.5 mph - N/A   Overcast
1:15 AM 21.2 °F 7.8 °F 15.8 °F 80% 30.06 in 10.0 mi West 15.0 mph - N/A   Overcast
1:35 AM 23.0 °F 11.1 °F 15.8 °F 74% 30.07 in 10.0 mi WNW 12.7 mph - N/A   Overcast
1:55 AM 23.0 °F 10.6 °F 17.6 °F 80% 30.06 in 10.0 mi WNW 13.8 mph 19.6 mph N/A Snow Light Snow
2:15 AM 23.0 °F 8.7 °F 17.6 °F 80% 30.07 in 10.0 mi NW 18.4 mph 23.0 mph N/A Snow Light Snow
2:35 AM 23.0 °F 6.3 °F 15.8 °F 74% 30.08 in 10.0 mi NNW 26.5 mph 34.5 mph N/A Snow Light Snow
2:55 AM 23.0 °F 8.3 °F 15.8 °F 74% 30.09 in 10.0 mi NNW 19.6 mph 28.8 mph N/A Rain Light Freezing Rain
3:15 AM 21.2 °F 3.3 °F 15.8 °F 80% 30.11 in 5.0 mi North 28.8 mph 36.8 mph 0.01 in Snow Light Snow
3:35 AM 19.4 °F 2.1 °F 14.0 °F 80% 30.12 in 10.0 mi North 24.2 mph 33.4 mph 0.01 in Snow Light Snow
3:55 AM 14.0 °F -6.8 °F 6.8 °F 73% 30.16 in 3.0 mi North 29.9 mph 43.7 mph 0.02 in Snow Light Snow
4:15 AM 10.4 °F -10.3 °F 5.0 °F 79% 30.18 in 6.0 mi NNE 25.3 mph 32.2 mph N/A Snow Light Snow
4:35 AM 8.6 °F -12.7 °F 1.4 °F 73% 30.21 in 6.0 mi NNE 25.3 mph 31.1 mph N/A Snow Light Snow
4:55 AM 6.8 °F -14.7 °F -0.4 °F 72% 30.22 in 7.0 mi NNE 24.2 mph 34.5 mph 0.01 in Snow Light Snow
5:15 AM 5.0 °F -18.3 °F -2.2 °F 72% 30.23 in 10.0 mi NNE 27.6 mph 33.4 mph N/A Snow Light Snow
5:35 AM 5.0 °F -16.7 °F -2.2 °F 72% 30.26 in 10.0 mi NNE 23.0 mph 32.2 mph N/A Snow Light Snow
5:55 AM 3.2 °F -16.5 °F -4.0 °F 72% 30.30 in 10.0 mi NNE 17.3 mph 28.8 mph N/A   Overcast
6:15 AM 1.4 °F -17.6 °F -7.6 °F 66% 30.33 in 10.0 mi NNE 15.0 mph 23.0 mph N/A   Overcast
6:35 AM -0.4 °F -22.8 °F -7.6 °F 72% 30.33 in 9.0 mi NNE 20.7 mph 25.3 mph N/A   Overcast
6:55 AM -0.4 °F -22.3 °F -11.2 °F 60% 30.35 in 10.0 mi NNE 19.6 mph 28.8 mph N/A   Mostly Cloudy
7:15 AM -0.4 °F -20.5 °F -11.2 °F 60% 30.37 in 10.0 mi NNE 16.1 mph 21.9 mph N/A   Scattered Clouds
7:35 AM -2.2 °F -20.7 °F - N/A% 30.39 in 10.0 mi North 12.7 mph 23.0 mph N/A   Mostly Cloudy
7:55 AM -2.2 °F -18.9 °F -13.0 °F 60% 30.41 in 10.0 mi NNE 10.4 mph - N/A   Scattered Clouds
8:15 AM -4.0 °F -23.0 °F -13.0 °F 65% 30.42 in 10.0 mi North 12.7 mph - N/A   Scattered Clouds
8:35 AM -4.0 °F -25.8 °F -13.0 °F 65% 30.42 in 10.0 mi North 17.3 mph - N/A   Mostly Cloudy
8:55 AM -4.0 °F -22.1 °F -16.6 °F 55% 30.44 in 10.0 mi NNE 11.5 mph 20.7 mph N/A   Partly Cloudy
9:15 AM -4.0 °F -22.1 °F -14.8 °F 60% 30.46 in 10.0 mi North 11.5 mph - N/A   Partly Cloudy
9:35 AM -4.0 °F -22.1 °F -14.8 °F 60% 30.48 in 10.0 mi North 11.5 mph - N/A   Scattered Clouds
9:55 AM -4.0 °F -19.0 °F -14.8 °F 60% 30.49 in 10.0 mi North 8.1 mph - N/A   Mostly Cloudy
10:15 AM -4.0 °F -21.2 °F -14.8 °F 60% 30.49 in 10.0 mi NNE 10.4 mph - N/A   Scattered Clouds
10:35 AM -4.0 °F -25.2 °F -14.8 °F 60% 30.50 in 10.0 mi North 16.1 mph - N/A   Mostly Cloudy
10:55 AM -4.0 °F -23.0 °F -14.8 °F 60% 30.51 in 10.0 mi North 12.7 mph - N/A   Mostly Cloudy
11:15 AM -4.0 °F -23.7 °F -13.0 °F 65% 30.52 in 10.0 mi North 13.8 mph - N/A   Mostly Cloudy
11:35 AM -2.2 °F -19.9 °F -13.0 °F 60% 30.52 in 10.0 mi North 11.5 mph - N/A   Scattered Clouds
11:55 AM -2.2 °F -20.7 °F -13.0 °F 60% 30.52 in 10.0 mi NNE 12.7 mph - N/A   Partly Cloudy
12:15 PM -2.2 °F -18.0 °F -13.0 °F 60% 30.52 in 10.0 mi North 9.2 mph - N/A   Scattered Clouds
12:35 PM -2.2 °F -21.5 °F -13.0 °F 60% 30.52 in 10.0 mi North 13.8 mph - N/A   Partly Cloudy
12:55 PM -2.2 °F -16.8 °F -13.0 °F 60% 30.52 in 10.0 mi NNE 8.1 mph - N/A   Partly Cloudy
1:15 PM -0.4 °F -13.4 °F -13.0 °F 55% 30.53 in 10.0 mi North 6.9 mph - N/A   Partly Cloudy
1:35 PM -2.2 °F -16.8 °F -13.0 °F 60% 30.52 in 10.0 mi North 8.1 mph - N/A   Scattered Clouds
1:55 PM -0.4 °F -14.7 °F -13.0 °F 55% 30.53 in 10.0 mi North 8.1 mph - N/A   Partly Cloudy
2:15 PM -0.4 °F -13.4 °F -13.0 °F 55% 30.53 in 10.0 mi NNW 6.9 mph - N/A   Clear
2:35 PM -0.4 °F -14.7 °F -13.0 °F 55% 30.53 in 10.0 mi North 8.1 mph - N/A   Clear
2:55 PM -0.4 °F -15.7 °F -13.0 °F 55% 30.53 in 10.0 mi North 9.2 mph - N/A   Clear
3:15 PM -0.4 °F -15.7 °F - N/A% 30.54 in 10.0 mi North 9.2 mph - N/A   Clear
3:35 PM -0.4 °F -15.7 °F -13.0 °F 55% 30.55 in 10.0 mi NNW 9.2 mph - N/A   Clear
3:55 PM -0.4 °F -16.7 °F -11.2 °F 60% 30.55 in 10.0 mi North 10.4 mph - N/A   Clear
4:15 PM -0.4 °F -14.7 °F -13.0 °F 55% 30.57 in 10.0 mi North 8.1 mph - N/A   Clear
4:35 PM -0.4 °F -15.7 °F -13.0 °F 55% 30.58 in 10.0 mi North 9.2 mph - N/A   Clear
4:55 PM -0.4 °F -14.7 °F -11.2 °F 60% 30.58 in 10.0 mi NNW 8.1 mph - N/A   Clear
5:15 PM -2.2 °F -12.5 °F -13.0 °F 60% 30.60 in 10.0 mi NNW 4.6 mph - N/A   Clear
5:35 PM -2.2 °F -14.2 °F -13.0 °F 60% 30.60 in 10.0 mi NW 5.8 mph - N/A   Partly Cloudy
5:55 PM -4.0 °F -12.4 °F -13.0 °F 65% 30.61 in 10.0 mi NW 3.5 mph - N/A   Clear
6:15 PM -4.0 °F -19.0 °F -13.0 °F 65% 30.62 in 10.0 mi NNW 8.1 mph - N/A   Clear
6:35 PM -4.0 °F -14.6 °F -13.0 °F 65% 30.63 in 10.0 mi NNW 4.6 mph - N/A   Clear
6:55 PM -5.8 °F -18.4 °F -13.0 °F 71% 30.63 in 10.0 mi NNW 5.8 mph - N/A   Clear
7:15 PM -7.6 °F -18.8 °F -16.6 °F 65% 30.64 in 10.0 mi NNW 4.6 mph - N/A   Clear
7:35 PM -7.6 °F - -16.6 °F 65% 30.65 in 10.0 mi Calm Calm - N/A   Clear
7:55 PM -4.0 °F -16.3 °F -13.0 °F 65% 30.65 in 10.0 mi NNW 5.8 mph - N/A   Clear
8:15 PM -9.4 °F - -16.6 °F 71% 30.66 in 10.0 mi Calm Calm - N/A   Clear
8:35 PM -9.4 °F - -16.6 °F 71% 30.66 in 10.0 mi Calm Calm - N/A   Clear
8:55 PM -9.4 °F - -18.4 °F 65% 30.66 in 10.0 mi Calm Calm - N/A   Clear
9:15 PM -9.4 °F - -16.6 °F 71% 30.67 in 10.0 mi Calm Calm - N/A   Clear
9:35 PM -9.4 °F -22.7 °F -18.4 °F 65% 30.67 in 10.0 mi WSW 5.8 mph - N/A   Clear
9:55 PM -9.4 °F -20.9 °F -18.4 °F 65% 30.67 in 10.0 mi WSW 4.6 mph - N/A   Clear
10:15 PM -9.4 °F -24.3 °F -16.6 °F 71% 30.67 in 10.0 mi WSW 6.9 mph - N/A   Clear
10:35 PM -9.4 °F -22.7 °F -16.6 °F 71% 30.67 in 10.0 mi SW 5.8 mph - N/A   Clear
10:55 PM -9.4 °F -22.7 °F -16.6 °F 71% 30.67 in - SW 5.8 mph - N/A   Clear
11:15 PM -9.4 °F -22.7 °F -16.6 °F 71% 30.66 in 10.0 mi WSW 5.8 mph - N/A   Partly Cloudy
11:35 PM -9.4 °F -20.9 °F -16.6 °F 71% 30.67 in 10.0 mi WSW 4.6 mph - N/A   Scattered Clouds
11:55 PM -11.2 °F -20.6 °F -18.4 °F 70% 30.68 in 10.0 mi WSW 3.5 mph - N/A   Scattered Clouds